Oconto, WI

3:15 AM CDT on September 20, 2019 (GMT -0500)
Oconto Municipal

Weather History for KOCQ - June, 2019

Change the Weather History Date:

Monday, June 3, 2019

  Actual Average Record
Temperature  
Mean Temperature 48 °F -  
Max Temperature 64 °F 71 °F 79 °F (2017)
Min Temperature 34 °F 46 °F 34 °F (2019)
Degree Days  
Heating Degree Days 16    
Moisture  
Dew Point 37 °F    
Average Humidity 62    
Maximum Humidity 98    
Minimum Humidity 31    
Precipitation  
Precipitation 0.00 in - - ()
Sea Level Pressure  
Sea Level Pressure 30.10 in    
Wind  
Wind Speed 3 mph (South)    
Max Wind Speed 12 mph    
Max Gust Speed 17 mph    
Visibility 10 miles    
Events      
Averages and records for this station are not official NWS values.
T = Trace of Precipitation, MM = Missing Value Source: NWS Daily Summary

Daily Weather History Graph

Daily Weather History Graph

Search for Another Location

Airport or City:

Astronomy

Jun. 03, 2019 Rise Set
Actual Time 5:07 AM CDT 8:32 PM CDT
Civil Twilight 4:31 AM CDT 9:08 PM CDT
Nautical Twilight 3:43 AM CDT 9:56 PM CDT
Astronomical Twilight 2:43 AM CDT 10:57 PM CDT
Moon 5:31 AM CDT (6/3) 8:55 PM CDT (6/3)
Length of Visible Light 16h 37m
Length of Day
15h 24m
New Moon, 0% of the Moon is Illuminated
Jun 3
New Moon
Jun 10
First Quarter
Jun 17
Full
Jun 25
Last Quarter
Jul 2
New

Hourly Weather History & Observations

Time (CDT) Temp. Windchill Dew Point Humidity Pressure Visibility Wind Dir Wind Speed Gust Speed Precip Events Conditions
12:15 AM 39.2 °F - 37.6 °F 94% 30.08 in 10.0 mi Calm Calm - N/A   Clear
12:35 AM 39.2 °F - 37.6 °F 94% 30.08 in 10.0 mi Calm Calm - N/A   Clear
12:55 AM 37.4 °F - 36.0 °F 95% 30.08 in 10.0 mi Calm Calm - N/A   Clear
1:15 AM 37.4 °F - 36.3 °F 96% 30.08 in 10.0 mi Calm Calm - N/A   Clear
1:35 AM 36.7 °F - 36.0 °F 97% 30.09 in 10.0 mi Calm Calm - N/A   Clear
1:55 AM 37.8 °F - 36.7 °F 96% 30.09 in 10.0 mi Calm Calm - N/A   Clear
2:15 AM 37.2 °F - 36.7 °F 98% 30.09 in 10.0 mi Calm Calm - N/A   Clear
2:35 AM 37.4 °F - 36.7 °F 97% 30.09 in 10.0 mi Calm Calm - N/A   Clear
2:55 AM 37.4 °F - 36.5 °F 97% 30.10 in 10.0 mi Calm Calm - N/A   Clear
3:15 AM 37.8 °F - 36.5 °F 95% 30.10 in 10.0 mi Calm Calm - N/A   Clear
3:35 AM 37.0 °F - 35.8 °F 95% 30.10 in 10.0 mi Calm Calm - N/A   Clear
3:55 AM 36.9 °F - 36.3 °F 98% 30.11 in 10.0 mi Calm Calm - N/A   Clear
4:15 AM 36.1 °F - 35.6 °F 98% 30.10 in 10.0 mi Calm Calm - N/A   Clear
4:35 AM 36.3 °F - 35.6 °F 97% 30.10 in 10.0 mi Calm Calm - N/A   Clear
4:55 AM 36.0 °F - 35.4 °F 98% 30.10 in 10.0 mi Calm Calm - N/A   Clear
5:15 AM 34.9 °F - 34.2 °F 97% 30.11 in 10.0 mi Calm Calm - N/A   Clear
5:35 AM 35.2 °F - 34.7 °F 98% 30.12 in 10.0 mi Calm Calm - N/A   Clear
5:55 AM 36.0 °F - 35.4 °F 98% 30.13 in 10.0 mi Calm Calm - N/A   Clear
6:15 AM 38.3 °F - 37.6 °F 97% 30.13 in 10.0 mi Calm Calm - N/A   Clear
6:35 AM 40.5 °F - 39.0 °F 95% 30.13 in 10.0 mi Calm Calm - N/A   Clear
6:55 AM 43.9 °F - 39.9 °F 86% 30.14 in 10.0 mi Calm Calm - N/A   Clear
7:15 AM 45.7 °F 43.4 °F 38.3 °F 75% 30.14 in 10.0 mi West 4.6 mph - N/A   Clear
7:35 AM 47.7 °F - 36.7 °F 66% 30.15 in 10.0 mi West 4.6 mph - N/A   Clear
7:55 AM 50.0 °F - 37.0 °F 61% 30.15 in 10.0 mi West 6.9 mph - N/A   Clear
8:15 AM 50.5 °F - 36.3 °F 58% 30.15 in 10.0 mi SW 4.6 mph - N/A   Clear
8:35 AM 52.7 °F - 35.2 °F 52% 30.15 in 10.0 mi WSW 3.5 mph - N/A   Clear
8:55 AM 54.3 °F - 35.2 °F 49% 30.15 in 10.0 mi SW 5.8 mph - N/A   Clear
9:15 AM 55.4 °F - 35.2 °F 47% 30.16 in 10.0 mi SSW 4.6 mph - N/A   Clear
9:35 AM 56.3 °F - 35.4 °F 46% 30.15 in 10.0 mi West 5.8 mph - N/A   Clear
9:55 AM 57.6 °F - 35.2 °F 43% 30.15 in 10.0 mi WSW 4.6 mph - N/A   Clear
10:15 AM 57.9 °F - 34.3 °F 41% 30.15 in 10.0 mi WSW 3.5 mph - N/A   Clear
10:35 AM 58.3 °F - 34.2 °F 40% 30.15 in 10.0 mi WNW 3.5 mph - N/A   Clear
10:55 AM 59.2 °F - 38.3 °F 46% 30.15 in 10.0 mi South 6.9 mph - N/A   Clear
11:15 AM 60.3 °F - 38.5 °F 44% 30.14 in 10.0 mi South 5.8 mph - N/A   Clear
11:35 AM 60.3 °F - 37.9 °F 44% 30.14 in 10.0 mi South 9.2 mph - N/A   Clear
11:55 AM 59.7 °F - 36.9 °F 43% 30.14 in 10.0 mi South 8.1 mph - N/A   Clear
12:15 PM 61.2 °F - 37.4 °F 41% 30.14 in 10.0 mi SSE 8.1 mph - N/A   Clear
12:35 PM 61.2 °F - 37.8 °F 42% 30.14 in 10.0 mi SE 9.2 mph - N/A   Clear
12:55 PM 60.1 °F - 36.9 °F 42% 30.13 in 10.0 mi SSE 6.9 mph - N/A   Clear
1:15 PM 60.3 °F - 36.7 °F 41% 30.12 in 10.0 mi SE 10.4 mph - N/A   Clear
1:35 PM 60.6 °F - 34.2 °F 37% 30.12 in 10.0 mi SE 8.1 mph - N/A   Clear
1:55 PM 61.0 °F - 34.0 °F 36% 30.11 in 10.0 mi South 8.1 mph - N/A   Scattered Clouds
2:15 PM 61.3 °F - 35.1 °F 37% 30.11 in 10.0 mi South 5.8 mph - N/A   Scattered Clouds
2:35 PM 62.6 °F - 35.8 °F 37% 30.11 in 10.0 mi SE 6.9 mph - N/A   Scattered Clouds
2:55 PM 63.0 °F - 33.6 °F 33% 30.10 in 10.0 mi SSE 9.2 mph - N/A   Scattered Clouds
3:15 PM 63.5 °F - 32.2 °F 31% 30.09 in 10.0 mi South 9.2 mph - N/A   Clear
3:35 PM 63.0 °F - 34.7 °F 35% 30.09 in 10.0 mi South 8.1 mph - N/A   Clear
3:55 PM 63.0 °F - 35.4 °F 36% 30.09 in 10.0 mi SSE 9.2 mph - N/A   Clear
4:35 PM 60.8 °F - 41.4 °F 49% 30.09 in 10.0 mi SSE 8.1 mph - N/A   Overcast
4:55 PM 60.8 °F - 42.3 °F 50% 30.08 in 10.0 mi SSE 9.2 mph - N/A   Overcast
5:15 PM 60.8 °F - 42.6 °F 51% 30.08 in 10.0 mi SSE 9.2 mph - N/A   Overcast
5:35 PM 60.6 °F - 43.3 °F 53% 30.08 in 10.0 mi SE 11.5 mph - N/A   Overcast
5:55 PM 59.7 °F - 40.8 °F 50% 30.07 in 10.0 mi SSE 11.5 mph - N/A   Overcast
6:15 PM 58.6 °F - 39.7 °F 49% 30.06 in 10.0 mi SSE 8.1 mph - N/A   Overcast
6:35 PM 59.2 °F - 39.0 °F 47% 30.06 in 10.0 mi SSE 11.5 mph 17.3 mph N/A   Mostly Cloudy
6:55 PM 57.4 °F - 38.5 °F 49% 30.05 in 10.0 mi SSE 9.2 mph - N/A   Scattered Clouds
7:15 PM 57.6 °F - 40.3 °F 53% 30.05 in 10.0 mi SSE 6.9 mph - N/A   Clear
7:35 PM 58.1 °F - 41.0 °F 53% 30.05 in 10.0 mi SSE 5.8 mph - N/A   Scattered Clouds
7:55 PM 57.2 °F - 38.7 °F 50% 30.05 in 10.0 mi SSE 10.4 mph - N/A   Clear
8:15 PM 56.1 °F - 38.1 °F 51% 30.04 in 10.0 mi SSE 8.1 mph - N/A   Scattered Clouds
8:35 PM 55.4 °F - 36.7 °F 49% 30.03 in 10.0 mi South 6.9 mph - N/A   Scattered Clouds
8:55 PM 54.9 °F - 36.7 °F 50% 30.04 in 10.0 mi SSE 6.9 mph - N/A   Clear
9:15 PM 54.5 °F - 37.8 °F 53% 30.03 in 10.0 mi SSE 6.9 mph - N/A   Clear
9:35 PM 54.5 °F - 37.4 °F 52% 30.04 in 10.0 mi SE 6.9 mph - N/A   Clear
9:55 PM 53.8 °F - 37.4 °F 54% 30.04 in 10.0 mi SSE 8.1 mph - N/A   Clear
10:15 PM 53.2 °F - 36.9 °F 54% 30.04 in 10.0 mi SSE 5.8 mph - N/A   Clear
10:35 PM 52.7 °F - 37.6 °F 56% 30.04 in 10.0 mi SSE 6.9 mph - N/A   Clear
10:55 PM 53.1 °F - 37.9 °F 57% 30.03 in 10.0 mi SSE 6.9 mph - N/A   Mostly Cloudy
11:15 PM 53.6 °F - 38.1 °F 56% 30.03 in 10.0 mi South 6.9 mph - N/A   Overcast
11:35 PM 54.0 °F - 37.8 °F 54% 30.02 in 10.0 mi South 5.8 mph - N/A   Overcast
11:55 PM 53.6 °F - 38.3 °F 56% 30.02 in 10.0 mi South 5.8 mph - N/A   Overcast